User: anonymous   Login
Location: Sperry Observatory
(40.6664°N, 74.3236°W)
Time: 16:46:12
(UTC-04:00)
Language:

FO-29 - Orbit

View from above orbital plane
View from above orbital plane
View from above satellite
View from above satellite

Ground track
Ground track

The orbit data is extracted from the following two-line orbital elements,

1 24278U 96046B   17176.22355308 -.00000019 +00000-0 +19831-4 0  9995
2 24278 098.5628 058.4117 0349645 316.7382 040.6777 13.53076716029966
Epoch (UTC): 25 June 2017 05:21:54
Eccentricity: 0.0349645
inclination: 98.5628°
perigee height: 801 km
apogee height: 1321 km
right ascension of ascending node: 58.4117°
argument of perigee: 316.7382°
revolutions per day: 13.53076716
mean anomaly at epoch: 40.6777°
orbit number at epoch: 2996

The dashed part of the orbit path shows where the satellite is in the earth's shadow,  

DLR